Flag for Germany Weather past 2 weeks in Zwickau, Saxony, Germany

Now
61 °F

Passing clouds.


Feels Like: 61 °F
Forecast: 54 / 73 °F
Wind: 5 mph from Southwest

Location: Altenburg Nobitz

Current Time: Aug 28, 2014 at 10:15:02 AM

Latest Report: Aug 28, 2014 at 9:50 AM


Visibility: N/A

Pressure: 30.09 "Hg

Humidity: 68%

Dew point: 50 °F

Location of ZwickauLocation

Historic Weather in Zwickau — Graph

°F

Zwickau temperature yesterday

Maximum temperature yesterday: 66 °F (at 1:50 PM)
Minimum temperature yesterday: 54 °F (at 8:50 AM)
Average temperature yesterday: 62 °F

Past Weeks' High & Low Weather Summary

 TemperatureHumidityPressure
High72 °F (Aug 13, 1:50 PM)100% (Aug 26, 9:20 AM)30.09 "Hg (Aug 26, 9:20 AM)
Low45 °F (Aug 28, 6:50 AM)37% (Aug 22, 6:20 PM)29.65 "Hg (Aug 13, 4:20 PM)
Average62 °F64%29.91 "Hg
* Reported Aug 13 9:20 AM — Aug 28 9:20 AM, Zwickau, Weather by CustomWeather, © 2014

Note: Actual official high and low records may vary slightly from our data, if they occured in-between our weather recording intervals... More about our weather records

Advertising

Zwickau weather history for previous 24 hours

 ConditionsComfort  
Time TempWeatherWind HumidityBarometerVisibility
9:20 AM
Aug 28
59 °FPassing clouds.6 mph72%30.09 "HgN/A
8:50 AM57 °FPassing clouds.3 mph77%30.09 "HgN/A
8:20 AM54 °FPassing clouds.3 mph82%30.09 "HgN/A
7:50 AM52 °FPassing clouds.5 mph88%30.09 "HgN/A
6:50 AM45 °FClear.3 mph93%30.09 "Hg10 mi
7:50 PM
Aug 27
59 °FPassing clouds.1 mph72%30.04 "HgN/A
7:20 PM64 °FSunny.5 mph52%30.04 "Hg10 mi
6:50 PM64 °FPassing clouds.7 mph49%30.04 "HgN/A
6:20 PM66 °FSunny.9 mph46%30.01 "Hg10 mi
5:50 PM66 °FSunny.8 mph49%30.01 "Hg10 mi
4:50 PM66 °FSunny.10 mph49%30.01 "Hg10 mi
4:20 PM66 °FSunny.10 mph52%30.01 "Hg10 mi
3:50 PM66 °FSunny.8 mph52%30.01 "Hg10 mi
3:20 PM63 °FPassing clouds.7 mph56%30.01 "HgN/A
2:50 PM66 °FSunny.8 mph52%30.01 "Hg10 mi
2:20 PM63 °FPassing clouds.8 mph59%30.01 "HgN/A
1:50 PM66 °FPassing clouds.8 mph60%30.01 "HgN/A
1:20 PM63 °FPassing clouds.7 mph59%30.01 "HgN/A
12:20 PM63 °FPassing clouds.7 mph64%30.01 "HgN/A
11:50 AM61 °FPassing clouds.6 mph63%29.98 "HgN/A
11:20 AM63 °FPassing clouds.5 mph68%29.98 "HgN/A
10:50 AM59 °FSunny.2 mph72%29.98 "Hg10 mi
10:20 AM57 °FSunny.3 mph77%29.98 "Hg10 mi
Weather by CustomWeather, © 2014

See weather overviewHow to use our weather pages